NOAA 16 DEB, 41146

Orbit data source: Space-Track

NOAA 16 DEB, 41146 is space debris in SSO originally from a launch on Thu, 21 Sep 2000 UTC launched from the Air Force Western Test Range (AFWTR). Debris objects in space refer to the collection of defunct objects orbiting the Earth. Examples of debris include non-operational satellites, rocket bodies, and fragments generated from explosions, collisions, or faulty payload assembly.

Loading next visibility...
Identifier
41146, 2000-055CD
Orbit
SSO
Country
Flag of USUS
Related business
Manufacturer
Unknown
Mission
Spacecraft
Bus & Motor
Unknown
Mass
Unknown
Launch date (UTC)
2000-09-21 (26 years ago)
Launch vehicle
Unknown
Launch site
Air Force Western Test Range (AFWTR)
Object type
Payload
Rocket body
Debris
Shape & HBR
Unknown shape, 0.1 m
Radar Cross Section
Small (<0.1 m²)

Expand to show TLE details & history
Last TLE update: 23 hours ago

TLE from 23 hours ago
0 NOAA 16 DEB
1 41146U 00055CD  26106.79731787  .00008142  00000-0  18918-2 0  9994
2 41146  98.8263 231.1484 0015865 272.3834  87.5545 14.55136289537554
Epoch: 2026-04-16T19:08Z
TLE epoch observation values (Epoch: 2026-04-16T19:08:08.263Z)
Latitude
-0.00005°
Longitude
99.17427°
Altitude
711.419 km
Speed
7.5 km/s
True Right ascension
15h 24m 35s
True Declination
0° 00' 00"
Sunlit
Object was in full shadow at epoch
Visualization orbit readout
Latitude
Unknown
Longitude
Unknown
Altitude
Unknown
Speed
Unknown
Apparent Right ascension
Unknown
Apparent Declination
Unknown
Sunlit
N/A
Visualization observer readout
Local Sidereal Time
00:39:29
Azimuth
Unknown
Elevation
Unknown
Doppler factor
Unknown
Orbital elements
Apogee altitude
717.279 km
Perigee altitude
694.801 km
Semi-major axis
7,084.177 km
Eccentricity
0.00159
Inclination
98.8263°
RAAN
231.1484°
Arg. of periapsis
272.3834°
True anomaly
87.73615°
Mean anomaly
87.5545°
Eccentric anomaly
87.64532°
Mean motion
3.64006 °/min
Orbital period
98.9 mins
BSTAR
0.0018918
Loading maneuver chart data...
Computing Atmospheric mass density...
Loading historical data...
Loading historical data...
Loading historical data...
Loading historical data...
Loading historical data...
Loading historical data...
Loading historical data...

Documentation

Showing up to 5 results
|